ATLAS 5 CENTAUR DEB, 46846

Orbit data source: Space-Track

ATLAS 5 CENTAUR DEB, 46846 is space debris in HEO originally from a launch on Wed, 17 Oct 2018 UTC launched from the Air Force Eastern Test Range (AFETR). Debris objects in space refer to the collection of defunct objects orbiting the Earth. Examples of debris include non-operational satellites, rocket bodies, and fragments generated from explosions, collisions, or faulty payload assembly.

Loading next visibility...
Identifier
46846, 2018-079DB
Orbit
HEO
Country
Flag of USUS
Related business
Flag of USUnited Launch Alliance/Lockheed Martin (US)
Manufacturer
ULA Decatur
Mission
Spacecraft
Bus & Motor
Unknown
Mass
Unknown
Launch date (UTC)
2018-10-17 (7 years ago)
Launch vehicle
Unknown
Launch site
Air Force Eastern Test Range (AFETR)
Object type
Payload
Rocket body
Debris
Shape & HBR
Unknown shape, 1.1 m
Radar Cross Section
RCS unknown

Expand to show TLE details & history
Last TLE update: 3 days ago

TLE from 3 days ago
0 ATLAS 5 CENTAUR DEB
1 46846U 18079DB  25285.64422007 -.00000080  00000-0  00000-0 0  9999
2 46846  11.8901  81.4806 4668158 226.7612  83.4762  1.71838211 31041
Epoch: 2025-10-12T15:27Z
TLE epoch observation values (Epoch: 2025-10-12T15:27:40.614Z)
Latitude
-0.00003°
Longitude
-171.91971°
Altitude
27,452.614 km
Speed
3.167 km/s
True Right ascension
05h 25m 49s
True Declination
0° 00' 00"
Sunlit
Object was in daylight at epoch
Visualization orbit readout
Latitude
Unknown
Longitude
Unknown
Altitude
Unknown
Speed
Unknown
Apparent Right ascension
Unknown
Apparent Declination
Unknown
Sunlit
N/A
Visualization observer readout
Local Sidereal Time
07:57:52
Azimuth
Unknown
Elevation
Unknown
Doppler factor
Unknown
Orbital elements
Apogee altitude
36,812.976 km
Perigee altitude
9,321.734 km
Semi-major axis
29,445.492 km
Eccentricity
0.46682
Inclination
11.8901°
RAAN
81.4806°
Arg. of periapsis
226.7612°
True anomaly
133.30334°
Mean anomaly
83.4762°
Eccentric anomaly
108.79637°
Mean motion
0.42955 °/min
Orbital period
838.08 mins
BSTAR
0
Loading maneuver chart data...
Computing Atmospheric mass density...

Documentation

Showing up to 5 results
|